Date,TemperatureHighF,TemperatureAvgF,TemperatureLowF,DewpointHighF,DewpointAvgF,DewpointLowF,HumidityHigh,HumidityAvg,HumidityLow,PressureMaxIn,PressureMinIn,WindSpeedMaxMPH,WindSpeedAvgMPH,GustSpeedMaxMPH,PrecipitationSumIn
2013-1-1,14.0,1.7,-14.0,9.0,-4.6,-20.0,84,74,61,0.00,40.00,10,4,14,0.00
2013-1-2,26.0,14.3,4.0,25.0,11.1,0.0,98,87,75,0.00,40.00,14,6,21,0.00
2013-1-3,22.0,10.6,6.0,18.0,5.5,0.0,87,79,71,0.00,40.00,18,11,24,0.00
2013-1-4,28.0,18.2,9.0,18.0,12.3,7.0,92,78,61,0.00,40.00,15,8,22,0.00
2013-1-5,28.0,16.8,5.0,19.0,12.6,1.0,92,83,71,0.00,40.00,19,8,29,0.00
2013-1-6,19.0,12.7,8.0,14.0,7.7,1.0,89,80,68,0.00,40.00,17,8,22,0.00
2013-1-7,35.0,25.5,13.0,27.0,20.2,10.0,98,80,70,0.00,40.00,20,8,26,0.00
2013-1-8,36.0,22.5,7.0,32.0,19.6,5.0,99,88,81,0.00,40.00,19,7,26,0.00
2013-1-9,37.0,30.1,20.0,28.0,25.1,19.0,99,81,63,0.00,40.00,17,9,24,0.00
2013-1-10,37.0,31.8,22.0,32.0,25.5,19.0,99,78,57,0.00,40.00,19,11,27,0.00
2013-1-11,41.0,36.3,34.0,41.0,36.0,34.0,99,99,99,0.00,40.00,12,7,17,0.00
2013-1-12,38.0,16.7,7.0,37.0,9.8,0.0,99,74,62,0.00,40.00,26,15,37,0.00
2013-1-13,9.0,5.4,2.0,3.0,-1.9,-6.0,77,71,65,0.00,40.00,16,10,21,0.00
2013-1-14,23.0,11.7,4.0,10.0,5.7,-2.0,90,76,58,0.00,40.00,12,5,18,0.00
2013-1-15,31.0,21.2,13.0,18.0,13.1,9.0,81,70,55,0.00,40.00,17,9,24,0.00
2013-1-16,39.0,27.5,16.0,36.0,23.1,9.0,99,83,66,0.00,40.00,18,12,25,0.00
2013-1-17,27.0,16.7,6.0,18.0,9.2,-2.0,87,72,47,0.00,40.00,17,6,21,0.00
2013-1-18,46.0,34.1,22.0,34.0,27.9,18.0,92,79,60,0.00,40.00,18,10,29,0.00
2013-1-19,42.0,29.2,4.0,34.0,23.0,-4.0,97,77,56,0.00,40.00,33,15,45,0.00
2013-1-20,11.0,5.1,0.0,3.0,-3.2,-8.0,77,68,59,0.00,40.00,20,12,29,0.00
2013-1-21,2.0,-3.7,-11.0,-6.0,-13.4,-20.0,70,62,52,0.00,40.00,19,13,30,0.00
2013-1-22,10.0,1.1,-7.0,1.0,-8.6,-17.0,73,63,52,0.00,40.00,11,6,16,0.00
2013-1-23,18.0,10.4,-1.0,10.0,2.4,-15.0,85,70,51,0.00,40.00,22,11,32,0.00
2013-1-24,15.0,5.2,-4.0,0.0,-10.2,-17.0,60,49,34,0.00,40.00,18,10,24,0.00
2013-1-25,24.0,13.6,3.0,16.0,3.8,-4.0,81,65,42,0.00,40.00,27,12,39,0.00
2013-1-26,26.0,13.3,-1.0,10.0,2.1,-8.0,79,61,48,0.00,40.00,17,9,26,0.00
2013-1-27,32.0,28.9,24.0,32.0,22.2,10.0,99,78,52,0.00,40.00,17,8,90,0.00
2013-1-28,35.0,30.8,28.0,34.0,30.2,28.0,99,99,99,0.00,40.00,12,2,16,0.00
2013-1-29,36.0,32.4,29.0,36.0,31.7,27.0,99,98,92,0.00,40.00,16,9,29,0.00
2013-1-30,28.0,17.9,7.0,27.0,13.9,1.0,99,84,72,0.00,40.00,22,17,32,0.00
2013-1-31,7.0,-3.6,-8.0,1.0,-11.9,-17.0,79,66,62,0.00,40.00,26,18,34,0.00
2013-2-1,10.0,-0.1,-10.0,5.0,-8.3,-18.0,86,67,54,0.00,40.00,20,9,25,0.00
2013-2-2,22.0,11.3,5.0,21.0,6.2,0.0,99,80,58,0.00,40.00,17,6,24,0.00
2013-2-3,22.0,14.8,7.0,21.0,10.1,1.0,96,82,64,0.00,40.00,22,10,30,0.00
2013-2-4,19.0,14.2,8.0,18.0,9.0,5.0,96,79,58,0.00,40.00,12,7,19,0.00
2013-2-5,34.0,24.0,15.0,30.0,21.1,14.0,99,90,68,0.00,40.00,20,10,29,0.00
2013-2-6,36.0,25.2,9.0,36.0,23.0,7.0,99,92,78,0.00,40.00,16,6,23,0.00
2013-2-7,33.0,26.9,23.0,32.0,26.3,21.0,99,98,93,0.00,40.00,15,8,21,0.00
2013-2-8,27.0,24.9,22.0,25.0,22.0,19.0,94,88,79,0.00,40.00,15,7,24,0.00
2013-2-9,31.0,27.5,25.0,30.0,26.8,25.0,99,98,92,0.00,40.00,22,15,29,0.00
2013-2-10,38.0,33.1,29.0,37.0,32.6,28.0,99,99,99,0.00,40.00,24,14,31,0.00
2013-2-11,29.0,23.4,20.0,28.0,20.5,16.0,99,88,77,0.00,40.00,32,20,44,0.01
2013-2-12,36.0,27.0,18.0,30.0,22.6,14.0,98,83,67,0.00,40.00,14,7,21,0.00
2013-2-13,42.0,31.8,21.0,37.0,29.1,21.0,99,90,66,0.00,40.00,14,6,19,0.00
2013-2-14,36.0,29.4,16.0,34.0,24.5,9.0,99,82,62,0.00,40.00,21,12,29,0.00
2013-2-15,21.0,13.9,9.0,9.0,5.2,1.0,85,68,48,0.00,40.00,16,11,24,0.00
2013-2-16,29.0,17.4,10.0,18.0,11.6,7.0,95,79,55,0.00,40.00,13,5,20,0.00
2013-2-17,34.0,24.7,15.0,27.0,19.7,12.0,94,81,68,0.00,40.00,23,13,32,0.00
2013-2-18,35.0,22.5,4.0,34.0,18.0,-2.0,99,82,67,0.00,40.00,27,14,39,0.00
2013-2-19,5.0,0.2,-5.0,0.0,-7.5,-13.0,79,69,62,0.00,40.00,26,18,39,0.00
2013-2-20,19.0,5.4,-7.0,9.0,-2.2,-13.0,83,69,50,0.00,40.00,12,6,16,0.00
2013-2-21,25.0,15.6,4.0,18.0,8.8,1.0,95,75,56,0.00,40.00,20,11,27,0.00
2013-2-22,27.0,20.9,15.0,21.0,18.8,12.0,99,92,77,0.00,40.00,37,9,70,0.01
2013-2-23,25.0,14.7,-5.0,14.0,9.2,-9.0,96,79,51,0.00,40.00,11,5,16,0.00
2013-2-24,31.0,15.5,-5.0,25.0,11.1,-9.0,99,82,63,0.00,40.00,10,3,12,0.00
2013-2-25,36.0,27.9,18.0,30.0,25.7,18.0,99,93,72,0.00,40.00,7,2,9,0.00
2013-2-26,33.0,28.4,21.0,27.0,25.3,21.0,99,88,75,0.00,40.00,20,11,27,0.00
2013-2-27,34.0,28.8,22.0,27.0,24.9,21.0,92,84,71,0.00,40.00,17,11,24,0.00
2013-2-28,29.0,25.8,20.0,25.0,21.8,18.0,93,85,73,0.00,40.00,12,8,17,0.00
2013-3-1,27.0,22.1,13.0,19.0,15.7,10.0,90,76,63,0.00,40.00,14,8,18,0.00
2013-3-2,31.0,16.7,2.0,18.0,10.8,0.0,93,79,49,0.00,40.00,7,3,9,0.00
2013-3-3,31.0,23.5,15.0,19.0,15.1,10.0,92,71,49,0.00,40.00,17,10,21,0.00
2013-3-4,29.0,25.0,22.0,25.0,22.9,14.0,99,92,63,0.00,40.00,24,14,30,0.00
2013-3-5,29.0,26.2,24.0,28.0,24.3,21.0,99,92,77,0.00,40.00,15,7,26,0.00
2013-3-6,27.0,19.1,0.0,21.0,15.6,-4.0,97,86,70,0.00,40.00,12,6,19,0.00
2013-3-7,29.0,12.9,-5.0,19.0,8.3,-9.0,96,82,65,0.00,40.00,15,6,21,0.00
2013-3-8,38.0,27.6,15.0,32.0,24.7,14.0,99,90,74,0.00,40.00,19,11,24,0.00
2013-3-9,36.0,34.4,33.0,36.0,34.0,32.0,99,99,99,0.00,40.00,19,12,28,0.00
2013-3-10,34.0,31.9,29.0,34.0,31.1,28.0,99,98,93,0.00,40.00,21,14,29,0.01
2013-3-11,29.0,25.6,20.0,28.0,23.1,16.0,99,91,74,0.00,40.00,18,13,27,0.01
2013-3-12,27.0,23.5,18.0,27.0,19.0,14.0,99,82,68,0.00,40.00,24,14,32,0.00
2013-3-13,29.0,18.9,11.0,18.0,13.9,9.0,93,81,53,0.00,40.00,14,8,21,0.00
2013-3-14,40.0,29.4,19.0,30.0,24.0,16.0,99,81,60,0.00,40.00,14,6,21,0.00
2013-3-15,41.0,34.2,28.0,34.0,32.6,27.0,99,94,73,0.00,40.00,12,6,16,0.00
2013-3-16,33.0,24.6,16.0,32.0,20.0,10.0,99,83,68,0.00,40.00,16,10,24,0.00
2013-3-17,31.0,21.1,11.0,27.0,14.7,5.0,90,76,65,0.00,40.00,21,13,27,0.00
2013-3-18,31.0,22.4,12.0,30.0,18.8,7.0,99,86,70,0.00,40.00,28,18,39,0.00
2013-3-19,23.0,14.1,8.0,10.0,4.6,1.0,82,66,51,0.00,40.00,24,18,35,0.00
2013-3-20,20.0,12.5,6.0,5.0,1.3,-2.0,74,61,45,0.00,40.00,23,16,33,0.00
2013-3-21,29.0,14.4,0.0,10.0,4.7,-4.0,84,66,42,0.00,40.00,10,3,14,0.00
2013-3-22,36.0,20.5,6.0,18.0,10.8,3.0,92,68,36,0.00,40.00,7,2,10,0.00
2013-3-23,36.0,25.7,14.0,23.0,17.2,12.0,97,71,48,0.00,40.00,10,4,13,0.00
2013-3-24,32.0,27.6,24.0,27.0,23.8,21.0,99,86,69,0.00,40.00,14,9,22,0.00
2013-3-25,35.0,28.9,24.0,25.0,20.2,18.0,87,70,55,0.00,40.00,16,12,25,0.00
2013-3-26,38.0,27.8,19.0,28.0,21.6,18.0,94,78,51,0.00,40.00,12,6,18,0.00
2013-3-27,42.0,31.2,20.0,28.0,24.5,19.0,99,78,48,0.00,40.00,8,2,12,0.00
2013-3-28,44.0,33.4,23.0,37.0,29.2,23.0,99,85,65,0.00,40.00,10,4,14,0.00
2013-3-29,51.0,39.5,29.0,43.0,34.6,28.0,99,83,67,0.00,40.00,14,6,18,0.00
2013-3-30,54.0,44.5,36.0,50.0,40.7,34.0,99,86,73,0.00,40.00,17,9,22,0.00
2013-3-31,40.0,33.5,26.0,36.0,26.4,16.0,99,77,48,0.00,40.00,22,15,35,0.00
2013-4-1,34.0,25.7,18.0,21.0,14.7,10.0,81,63,45,0.00,40.00,18,11,26,0.00
2013-4-2,38.0,28.2,20.0,21.0,18.0,10.0,97,69,33,0.00,40.00,16,7,22,0.00
2013-4-3,46.0,33.1,20.0,30.0,23.0,18.0,99,69,42,0.00,40.00,20,9,26,0.00
2013-4-4,53.0,41.5,34.0,37.0,29.4,23.0,85,62,41,0.00,40.00,16,10,24,0.00
2013-4-5,46.0,37.3,28.0,34.0,28.1,23.0,88,70,55,0.00,40.00,20,10,26,0.00
2013-4-6,60.0,44.8,36.0,48.0,37.7,28.0,99,77,56,0.00,40.00,22,15,29,0.00
2013-4-7,53.0,42.5,33.0,46.0,39.5,32.0,99,89,73,0.00,40.00,15,8,19,0.00
2013-4-8,59.0,49.8,41.0,55.0,48.2,41.0,99,95,78,0.00,40.00,17,7,24,0.00
2013-4-9,40.0,38.5,36.0,39.0,37.7,36.0,99,99,99,0.00,40.00,27,18,49,0.04
2013-4-10,36.0,33.3,31.0,36.0,33.0,30.0,99,99,99,0.00,40.00,31,16,42,0.02
2013-4-11,36.0,33.6,32.0,36.0,33.2,32.0,99,99,99,0.00,40.00,17,11,22,0.01
2013-4-12,34.0,30.6,28.0,30.0,28.7,28.0,99,94,84,0.00,40.00,18,12,23,0.01
2013-4-13,42.0,33.3,27.0,32.0,27.9,25.0,99,81,54,0.00,40.00,17,9,22,0.00
2013-4-14,52.0,37.6,32.0,52.0,36.4,30.0,99,96,87,0.00,40.00,23,13,30,0.00
2013-4-15,41.0,36.5,32.0,37.0,29.2,25.0,85,75,63,0.00,40.00,24,14,34,0.00
2013-4-16,47.0,37.7,30.0,32.0,28.9,27.0,90,72,48,0.00,40.00,14,8,20,0.00
2013-4-17,39.0,36.6,35.0,39.0,33.6,30.0,99,89,78,0.00,40.00,34,11,42,0.01
2013-4-18,36.0,33.5,31.0,36.0,33.0,30.0,99,99,99,0.00,40.00,22,13,32,0.03
2013-4-19,35.0,31.0,29.0,30.0,28.3,25.0,99,90,75,0.00,40.00,23,17,34,0.01
2013-4-20,45.0,33.7,24.0,27.0,22.3,14.0,96,66,33,0.00,40.00,12,6,19,0.00
2013-4-21,58.0,43.8,34.0,50.0,38.8,27.0,99,83,59,0.00,40.00,24,14,33,0.01
2013-4-22,45.0,38.8,32.0,45.0,38.1,32.0,99,99,99,0.00,40.00,20,9,25,0.02
2013-4-23,39.0,33.0,28.0,32.0,27.4,21.0,99,81,54,0.00,40.00,17,12,27,0.01
2013-4-24,51.0,37.0,25.0,41.0,29.0,23.0,99,76,34,0.00,40.00,28,10,49,0.00
2013-4-25,54.0,40.0,28.0,36.0,27.2,14.0,96,63,27,0.00,40.00,21,10,32,0.00
2013-4-26,74.0,58.2,42.0,48.0,36.9,32.0,83,48,23,0.00,40.00,21,12,31,0.00
2013-4-27,71.0,58.7,45.0,50.0,46.8,43.0,99,68,39,0.00,40.00,14,8,21,0.00
2013-4-28,78.0,61.9,46.0,50.0,46.4,45.0,95,62,31,0.00,40.00,20,10,35,0.00
2013-4-29,74.0,63.4,52.0,57.0,53.9,48.0,99,73,48,0.00,40.00,15,7,21,0.00
2013-4-30,74.0,64.2,52.0,61.0,52.2,41.0,99,68,35,0.00,40.00,22,10,31,0.01
2013-5-1,53.0,41.2,32.0,46.0,39.5,32.0,99,94,72,0.00,40.00,21,13,27,0.03
2013-5-2,38.0,34.9,32.0,36.0,31.2,28.0,99,86,70,0.00,40.00,20,11,27,0.03
2013-5-3,34.0,32.3,31.0,32.0,31.4,30.0,99,97,89,0.00,40.00,18,13,26,0.01
2013-5-4,43.0,37.3,32.0,41.0,35.9,32.0,99,96,86,0.00,40.00,17,10,21,0.01
2013-5-5,61.0,47.6,37.0,55.0,44.9,37.0,99,91,77,0.00,40.00,10,7,15,0.00
2013-5-6,74.0,58.7,42.0,55.0,47.4,41.0,99,70,36,0.00,40.00,9,4,14,0.00
2013-5-7,75.0,63.2,43.0,55.0,49.0,43.0,99,64,35,0.00,40.00,12,3,15,0.00
2013-5-8,75.0,62.0,48.0,59.0,52.3,46.0,99,75,38,0.00,40.00,17,4,24,0.00
2013-5-9,58.0,54.8,45.0,57.0,54.1,45.0,99,99,99,0.00,40.00,18,8,28,0.01
2013-5-10,65.0,51.1,40.0,50.0,39.5,-99.9,99,73,30,0.00,40.00,15,7,22,0.00
2013-5-11,55.0,48.1,42.0,43.0,26.2,-99.9,80,46,20,0.00,40.00,26,15,40,0.00
2013-5-12,59.0,45.1,30.0,28.0,21.2,12.0,76,43,15,0.00,40.00,17,8,26,0.00
2013-5-13,75.0,56.1,34.0,46.0,33.9,25.0,82,45,26,0.00,40.00,24,10,34,0.00
2013-5-14,101.0,78.2,53.0,54.0,44.2,25.0,80,36,13,0.00,40.00,26,13,44,0.00
2013-5-15,76.0,66.6,55.0,46.0,42.5,30.0,66,42,22,0.00,40.00,17,7,26,0.00
2013-5-16,88.0,64.6,49.0,64.0,27.5,-99.9,99,48,13,0.00,40.00,11,4,17,0.00
2013-5-17,70.0,61.7,54.0,68.0,57.0,-99.9,99,98,91,0.00,40.00,19,11,24,0.02
2013-5-18,81.0,70.5,59.0,70.0,63.1,57.0,99,79,53,0.00,40.00,17,10,23,0.01
2013-5-19,79.0,70.3,64.0,73.0,65.9,63.0,99,87,66,0.00,40.00,23,12,39,0.01
2013-5-20,72.0,65.2,57.0,64.0,59.9,54.0,99,84,58,0.00,40.00,22,12,34,0.01
2013-5-21,63.0,60.1,57.0,61.0,54.5,50.0,99,82,63,0.00,40.00,14,7,21,0.00
2013-5-22,57.0,54.4,51.0,55.0,53.8,50.0,99,99,93,0.00,40.00,13,7,21,0.01
2013-5-23,63.0,54.2,47.0,50.0,43.3,36.0,99,69,37,0.00,40.00,18,11,26,0.01
2013-5-24,67.0,54.2,38.0,52.0,43.0,36.0,99,68,42,0.00,40.00,19,9,27,0.00
2013-5-25,54.0,52.6,50.0,52.0,50.9,48.0,99,92,83,0.00,40.00,21,13,29,0.00
2013-5-26,54.0,51.8,47.0,54.0,51.4,46.0,99,99,98,0.00,40.00,26,16,35,0.00
2013-5-27,58.0,55.8,53.0,57.0,55.2,52.0,99,99,99,0.00,40.00,21,12,24,0.01
2013-5-28,67.0,60.3,54.0,66.0,59.9,54.0,99,99,99,0.00,40.00,10,5,14,0.01
2013-5-29,76.0,66.4,57.0,72.0,64.8,57.0,99,95,81,0.00,40.00,17,10,27,0.00
2013-5-30,72.0,68.1,63.0,68.0,64.7,63.0,99,89,75,0.00,40.00,24,15,31,0.00
2013-5-31,78.0,67.4,59.0,66.0,58.2,46.0,99,75,34,0.00,40.00,25,14,32,0.00
2013-6-1,71.0,60.2,52.0,61.0,55.6,48.0,99,85,58,0.00,40.00,17,8,28,0.00
2013-6-2,65.0,55.1,47.0,50.0,43.4,37.0,88,66,38,0.00,40.00,15,7,26,0.00
2013-6-3,72.0,60.9,43.0,50.0,45.3,39.0,99,60,35,0.00,40.00,17,6,22,0.00
2013-6-4,60.0,57.2,54.0,57.0,52.9,48.0,99,85,65,0.00,40.00,22,12,29,0.00
2013-6-5,69.0,60.2,53.0,61.0,54.3,50.0,99,82,55,0.00,40.00,11,4,15,0.00
2013-6-6,60.0,56.6,54.0,57.0,54.3,50.0,99,91,74,0.00,40.00,11,6,15,0.00
2013-6-7,66.0,57.9,50.0,55.0,53.1,50.0,99,84,58,0.00,40.00,9,3,11,0.00
2013-6-8,67.0,60.0,49.0,59.0,53.1,48.0,99,79,60,0.00,40.00,11,5,16,0.00
2013-7-10,78.0,72.4,63.0,61.0,55.6,54.0,87,56,42,0.00,40.00,10,5,17,0.00
2013-7-11,84.0,72.5,56.0,61.0,56.0,52.0,99,61,33,0.00,40.00,13,6,17,0.00
2013-7-12,85.0,74.6,65.0,61.0,58.2,55.0,74,57,37,0.00,40.00,19,11,28,0.00
2013-7-13,75.0,69.0,61.0,64.0,60.1,54.0,99,74,55,0.00,40.00,20,11,34,0.01
2013-7-14,84.0,74.6,65.0,70.0,64.9,63.0,98,74,48,0.00,40.00,12,7,22,0.01
2013-7-15,88.0,79.0,63.0,75.0,68.4,63.0,99,72,52,0.00,40.00,10,4,14,0.00
2013-7-16,90.0,82.7,72.0,73.0,70.8,66.0,99,69,49,0.00,40.00,8,5,12,0.00
2013-7-17,93.0,82.7,73.0,73.0,70.4,66.0,96,68,45,0.00,40.00,9,4,14,0.00
2013-7-18,91.0,83.2,73.0,72.0,69.0,66.0,93,64,44,0.00,40.00,16,9,25,0.00
2013-7-19,84.0,77.9,68.0,72.0,65.5,59.0,92,66,46,0.00,40.00,14,-25,23,0.00
2013-7-22,89.0,80.4,69.0,73.0,66.3,59.0,78,62,46,0.00,40.00,14,10,22,0.00
2013-7-23,74.0,66.6,59.0,59.0,55.2,50.0,93,68,43,0.00,40.00,14,6,21,0.00
2013-7-24,79.0,67.8,54.0,59.0,55.8,54.0,99,68,45,0.00,40.00,6,2,9,0.00
2013-7-25,85.0,70.3,60.0,64.0,61.3,59.0,99,75,43,0.00,40.00,14,7,24,0.02
2013-7-26,69.0,64.6,59.0,64.0,56.6,50.0,99,76,53,0.00,40.00,17,10,27,0.02
2013-7-27,64.0,55.7,50.0,52.0,48.9,43.0,99,79,45,0.00,40.00,19,7,26,0.00
2013-7-28,71.0,60.3,48.0,54.0,49.0,46.0,99,68,46,0.00,40.00,11,5,18,0.00
2013-7-29,75.0,65.9,50.0,57.0,53.5,50.0,99,67,46,0.00,40.00,11,5,17,0.00
2013-7-30,77.0,68.2,63.0,66.0,60.7,55.0,92,77,66,0.00,40.00,6,-14,9,0.00
2013-7-31,78.0,71.9,63.0,66.0,61.7,57.0,99,72,49,0.00,40.00,10,5,17,0.00
2013-8-1,81.0,69.0,56.0,66.0,58.4,52.0,98,72,40,0.00,40.00,12,6,19,0.00
2013-8-2,78.0,69.6,62.0,63.0,56.3,52.0,96,64,39,0.00,40.00,10,5,17,0.00
2013-8-3,75.0,66.2,53.0,57.0,52.7,48.0,99,65,38,0.00,40.00,9,3,13,0.00
2013-8-4,76.0,68.0,50.0,57.0,54.9,50.0,99,65,47,0.00,40.00,6,4,11,0.00
2013-8-5,80.0,70.0,61.0,72.0,65.7,57.0,99,87,69,0.00,40.00,7,-42,12,0.00
2013-8-6,84.0,73.2,60.0,70.0,65.7,59.0,99,80,52,0.00,40.00,14,4,17,0.00
2013-8-7,74.0,68.4,62.0,66.0,60.0,54.0,99,75,53,0.00,40.00,12,5,17,0.00
2013-8-8,75.0,67.8,52.0,64.0,56.1,52.0,99,69,44,0.00,40.00,7,2,10,0.00
2013-8-9,76.0,71.8,63.0,59.0,55.7,52.0,70,57,48,0.00,40.00,14,8,22,0.00
2013-8-10,74.0,65.5,56.0,64.0,57.3,52.0,93,75,55,0.00,40.00,9,4,11,0.00
2013-8-11,67.0,64.8,63.0,66.0,64.1,63.0,99,99,99,0.00,40.00,9,3,12,0.01
2013-9-12,70.0,67.2,56.0,48.0,47.6,46.0,68,50,45,0.00,40.00,14,12,20,0.00
2013-9-24,65.0,60.4,51.0,54.0,52.0,50.0,99,73,64,0.00,40.00,6,4,11,0.00
2013-9-25,72.0,72.0,72.0,50.0,50.0,50.0,46,46,46,0.00,40.00,14,14,19,0.00
2013-9-26,78.0,68.9,61.0,59.0,56.4,54.0,75,65,49,0.00,40.00,12,11,22,0.00
2013-9-27,84.0,75.5,67.0,61.0,60.5,59.0,79,60,43,0.00,40.00,24,15,32,0.00
2013-9-28,-200.0,0.0,200.0,-99.9,-99.9,-99.9,0,0,100,0.00,40.00,1,1,1,0.00
2013-9-29,73.0,68.4,65.0,45.0,44.0,41.0,46,40,30,0.00,40.00,12,10,24,0.00
2013-9-30,77.0,72.2,53.0,48.0,48.0,48.0,85,47,37,0.00,40.00,20,17,28,0.00
2013-10-27,59.0,36.7,25.0,34.0,26.7,23.0,93,72,37,0.00,40.00,3,2,7,0.00
2013-10-28,-200.0,0.0,200.0,-99.9,-99.9,-99.9,74,74,74,0.00,40.00,4,4,8,0.00
2013-10-29,54.0,54.0,54.0,37.0,37.0,37.0,53,53,53,0.00,40.00,7,7,9,0.00
2013-10-30,56.0,52.2,49.0,55.0,50.0,43.0,99,93,76,0.00,40.00,7,4,9,0.00
2013-10-31,44.0,43.4,42.0,43.0,42.4,41.0,99,99,99,0.00,40.00,11,7,14,0.00
2013-11-1,52.0,52.0,52.0,36.0,36.0,36.0,54,54,54,0.00,40.00,11,11,21,0.00
2013-11-2,45.0,22.5,45.0,32.0,-34.0,-99.9,59,30,59,0.00,40.00,12,6,20,0.00
2013-11-8,24.0,24.0,24.0,23.0,23.0,23.0,98,98,97,0.00,40.00,3,2,5,0.00
2013-11-9,44.0,22.0,44.0,41.0,-29.5,-99.9,85,42,85,0.00,40.00,14,13,23,0.00
2013-11-10,41.0,39.5,38.0,30.0,29.0,28.0,75,68,60,0.00,40.00,7,7,11,0.00
2013-11-11,34.0,24.0,16.0,34.0,18.3,9.0,95,78,67,0.00,40.00,15,12,22,0.00
2013-11-12,18.0,18.0,18.0,10.0,10.0,10.0,72,70,69,0.00,40.00,5,4,7,0.00
2013-11-13,49.0,36.8,22.0,32.0,23.7,10.0,61,58,52,0.00,40.00,17,13,28,0.00
2013-11-14,32.0,32.0,32.0,25.0,25.0,25.0,74,74,74,0.00,40.00,6,6,11,0.00